Location: Malvern Link
(52.1333°N, 2.3000°W)
Time: 14:44:31
(UTC+00:00)

Cosmos 1634 Rocket - Pass Details

Date: 03 December 2021
Orbit: 959 x 993 km, 82.9° (Epoch: 23 January)

Event Time Altitude Azimuth Distance (km) Brightness Sun altitude
Rises 03:33:56 0° 353° (N) 3,715 7.1 -39.3°
Reaches altitude 10° 03:36:54 10° 5° (N) 2,757 6.5 -38.9°
Maximum altitude 03:42:15 28° 63° (ENE) 1,748 5.7 -38.1°
Drops below altitude 10° 03:47:33 10° 122° (ESE) 2,723 6.8 -37.3°
Sets 03:50:26 0° 133° (SE) 3,661 7.4 -36.9°
